QPF
0.00 0.00 0.00 0.00 0.02 0.06 0.02 0.01 0.00 0.00 0.00 0.00 0.00 0.00 0.00 0.00 0.00 0.00 0.00 0.00 0.00 0.00 0.00 0.00 0.09 0.06 0.00 0.00 0.00 0.00 0.00 0.00 0.00 0.00 0.01 0.02 0.01 0.01 0.02 0.02 0.02 0.01 0.03 0.04 0.03 0.03 0.03 0.02 0.02
0.00 0.00 0.00 0.00 0.05 0.07 0.02 0.00 0.00 0.00 0.00 0.00 0.00 0.00 0.00 0.00 0.00 0.00 0.00 0.00 0.00 0.00 0.00 0.00 0.01 0.00 0.00 0.00 0.00 0.00 0.00 0.00 0.00 0.03 0.00 0.03 0.09 0.08 0.02 0.02 0.02 0.02 0.02 0.02 0.02 0.01 0.00 0.00 0.00
0.00 0.00 0.03 0.03 0.07 0.09 0.06 0.00 0.00 0.00 0.00 0.00 0.00 0.00 0.00 0.00 0.00 0.00 0.00 0.00 0.00 0.00 0.00 0.00 0.00 0.00 0.00 0.00 0.01 0.00 0.00 0.00 0.01 0.02 0.01 0.09 0.13 0.08 0.05 0.02 0.01 0.01 0.01 0.05 0.06 0.08 0.04 0.00 0.00
0.00 0.03 0.03 0.02 0.05 0.08 0.04 0.00 0.00 0.00 0.00 0.00 0.00 0.00 0.00 0.00 0.00 0.00 0.00 0.00 0.00 0.00 0.00 0.00 0.00 0.01 0.05 0.01 0.04 0.00 0.00 0.04 0.06 0.01 0.01 0.04 0.08 0.06 0.03 0.02 0.19 0.20 0.06 0.05 0.06 0.03 0.00 0.00 0.00
0.03 0.09 0.10 0.01 0.03 0.01 0.00 0.00 0.00 0.00 0.00 0.00 0.00 0.00 0.00 0.00 0.00 0.00 0.00 0.00 0.00 0.00 0.00 0.01 0.06 0.09 0.03 0.03 0.01 0.01 0.06 0.05 0.03 0.04 0.04 0.05 0.13 0.16 0.13 0.02 0.04 0.07 0.02 0.00 0.00 0.00 0.01 0.00 0.00
0.12 0.02 0.02 0.00 0.02 0.00 0.00 0.00 0.00 0.00 0.00 0.00 0.00 0.00 0.00 0.00 0.00 0.00 0.00 0.00 0.00 0.00 0.00 0.00 0.06 0.06 0.06 0.08 0.04 0.04 0.01 0.01 0.04 0.04 0.03 0.11 0.06 0.06 0.01 0.01 0.01 0.00 0.00 0.00 0.00 0.00 0.00 0.00 0.00
0.02 0.01 0.00 0.01 0.01 0.03 0.01 0.00 0.00 0.00 0.00 0.00 0.00 0.00 0.00 0.00 0.00 0.00 0.00 0.00 0.00 0.00 0.00 0.03 0.00 0.06 0.03 0.04 0.00 0.00 0.01 0.04 0.07 0.05 0.07 0.09 0.11 0.11 0.01 0.00 0.01 0.00 0.00 0.00 0.00 0.00 0.01 0.00 0.00
0.04 0.02 0.04 0.02 0.02 0.04 0.01 0.00 0.00 0.00 0.00 0.00 0.00 0.00 0.00 0.00 0.00 0.00 0.00 0.00 0.00 0.00 0.01 0.04 0.05 0.07 0.08 0.02 0.01 0.01 0.03 0.03 0.04 0.02 0.01 0.05 0.03 0.10 0.05 0.04 0.02 0.00 0.00 0.00 0.00 0.00 0.00 0.00 0.00
0.08 0.10 0.03 0.01 0.02 0.01 0.00 0.00 0.00 0.00 0.00 0.00 0.00 0.00 0.00 0.00 0.00 0.00 0.00 0.00 0.00 0.01 0.01 0.01 0.02 0.04 0.02 0.04 0.03 0.02 0.03 0.02 0.02 0.00 0.01 0.05 0.01 0.02 0.02 0.05 0.00 0.00 0.00 0.00 0.00 0.00 0.00 0.00 0.00
0.02 0.07 0.04 0.01 0.00 0.01 0.00 0.00 0.00 0.00 0.00 0.00 0.00 0.00 0.00 0.00 0.00 0.00 0.00 0.00 0.00 0.01 0.00 0.04 0.03 0.05 0.02 0.00 0.04 0.06 0.01 0.00 0.00 0.00 0.00 0.00 0.00 0.05 0.01 0.00 0.00 0.00 0.00 0.00 0.00 0.00 0.00 0.00 0.00
0.00 0.06 0.05 0.01 0.00 0.03 0.03 0.00 0.00 0.00 0.00 0.00 0.00 0.00 0.00 0.00 0.00 0.00 0.00 0.00 0.00 0.00 0.00 0.01 0.00 0.00 0.00 0.00 0.00 0.00 0.00 0.00 0.00 0.00 0.00 0.00 0.00 0.00 0.00 0.00 0.00 0.00 0.00 0.00 0.00 0.00 0.00 0.00 0.00
0.00 0.02 0.07 0.01 0.00 0.00 0.02 0.00 0.00 0.00 0.00 0.00 0.00 0.00 0.00 0.00 0.00 0.00 0.00 0.00 0.00 0.00 0.00 0.00 0.00 0.00 0.00 0.00 0.00 0.00 0.00 0.00 0.00 0.00 0.00 0.00 0.00 0.00 0.00 0.00 0.00 0.00 0.00 0.00 0.00 0.00 0.00 0.00 0.00
0.00 0.04 0.01 0.02 0.00 0.03 0.01 0.00 0.00 0.00 0.00 0.00 0.00 0.00 0.00 0.00 0.00 0.00 0.00 0.00 0.00 0.00 0.00 0.00 0.00 0.00 0.00 0.00 0.00 0.00 0.00 0.00 0.00 0.00 0.00 0.00 0.00 0.00 0.00 0.00 0.00 0.00 0.00 0.00 0.00 0.00 0.00 0.00 0.00
0.01 0.03 0.02 0.06 0.02 0.07 0.00 0.00 0.00 0.00 0.00 0.00 0.00 0.00 0.00 0.00 0.00 0.00 0.00 0.00 0.00 0.00 0.00 0.00 0.00 0.00 0.00 0.00 0.00 0.00 0.00 0.00 0.00 0.00 0.00 0.00 0.00 0.00 0.00 0.00 0.00 0.00 0.00 0.00 0.00 0.00 0.00 0.00 0.00
0.00 0.05 0.09 0.08 0.07 0.07 0.00 0.00 0.01 0.02 0.00 0.00 0.00 0.00 0.00 0.00 0.00 0.00 0.00 0.00 0.00 0.00 0.00 0.00 0.00 0.00 0.00 0.00 0.01 0.00 0.00 0.00 0.00 0.00 0.00 0.00 0.00 0.00 0.00 0.00 0.00 0.00 0.00 0.00 0.00 0.00 0.00 0.00 0.00
0.00 0.04 0.16 0.13 0.12 0.08 0.03 0.01 0.01 0.03 0.00 0.00 0.00 0.00 0.00 0.00 0.00 0.00 0.00 0.00 0.00 0.00 0.00 0.00 0.00 0.00 0.00 0.00 0.02 0.01 0.00 0.00 0.00 0.00 0.00 0.00 0.00 0.00 0.00 0.00 0.00 0.00 0.00 0.00 0.00 0.00 0.00 0.00 0.00
0.00 0.01 0.13 0.14 0.12 0.07 0.04 0.05 0.01 0.00 0.04 0.00 0.00 0.00 0.00 0.00 0.00 0.00 0.00 0.00 0.00 0.00 0.00 0.00 0.00 0.00 0.00 0.00 0.00 0.00 0.00 0.00 0.00 0.00 0.00 0.00 0.00 0.00 0.00 0.00 0.00 0.00 0.00 0.00 0.00 0.00 0.00 0.00 0.00
0.01 0.05 0.11 0.04 0.09 0.16 0.09 0.08 0.01 0.00 0.04 0.00 0.00 0.00 0.00 0.00 0.00 0.00 0.00 0.00 0.00 0.00 0.00 0.00 0.03 0.04 0.00 0.00 0.00 0.00 0.00 0.00 0.00 0.00 0.00 0.00 0.00 0.00 0.00 0.00 0.00 0.00 0.00 0.00 0.00 0.00 0.00 0.00 0.00
0.01 0.00 0.15 0.01 0.05 0.11 0.12 0.08 0.01 0.00 0.02 0.04 0.00 0.00 0.00 0.00 0.00 0.00 0.00 0.00 0.00 0.00 0.00 0.02 0.07 0.06 0.00 0.00 0.00 0.00 0.00 0.00 0.00 0.01 0.00 0.01 0.00 0.00 0.00 0.00 0.00 0.00 0.00 0.01 0.00 0.00 0.00 0.00 0.00
0.00 0.00 0.13 0.06 0.07 0.02 0.03 0.11 0.06 0.01 0.01 0.02 0.02 0.00 0.00 0.00 0.00 0.00 0.00 0.00 0.00 0.00 0.00 0.01 0.04 0.09 0.07 0.00 0.00 0.01 0.00 0.00 0.00 0.01 0.08 0.10 0.03 0.00 0.02 0.05 0.06 0.04 0.01 0.06 0.04 0.00 0.00 0.00 0.00
0.00 0.00 0.04 0.09 0.02 0.01 0.00 0.04 0.08 0.06 0.05 0.07 0.04 0.00 0.00 0.00 0.00 0.00 0.00 0.00 0.00 0.00 0.00 0.00 0.02 0.05 0.10 0.01 0.01 0.04 0.08 0.12 0.13 0.10 0.08 0.05 0.04 0.00 0.04 0.04 0.05 0.08 0.03 0.01 0.01 0.00 0.00 0.00 0.00
0.00 0.00 0.00 0.04 0.04 0.03 0.00 0.00 0.04 0.04 0.02 0.03 0.01 0.00 0.00 0.00 0.00 0.00 0.00 0.00 0.00 0.00 0.00 0.00 0.00 0.01 0.03 0.07 0.01 0.05 0.07 0.11 0.04 0.05 0.03 0.04 0.03 0.01 0.00 0.01 0.02 0.04 0.00 0.00 0.01 0.00 0.00 0.00 0.00
0.00 0.00 0.00 0.00 0.01 0.01 0.00 0.00 0.00 0.02 0.03 0.00 0.00 0.00 0.00 0.00 0.00 0.00 0.00 0.00 0.00 0.00 0.00 0.00 0.01 0.03 0.01 0.05 0.13 0.08 0.00 0.00 0.00 0.05 0.05 0.06 0.04 0.03 0.03 0.00 0.00 0.00 0.00 0.00 0.00 0.00 0.00 0.00 0.00
0.00 0.00 0.01 0.03 0.02 0.00 0.00 0.03 0.00 0.00 0.00 0.00 0.00 0.00 0.00 0.00 0.00 0.00 0.00 0.00 0.00 0.00 0.00 0.00 0.00 0.02 0.02 0.03 0.05 0.10 0.11 0.07 0.10 0.10 0.05 0.02 0.01 0.00 0.02 0.03 0.03 0.01 0.00 0.00 0.00 0.00 0.00 0.00 0.00
0.00 0.00 0.01 0.01 0.00 0.00 0.00 0.01 0.00 0.00 0.00 0.00 0.00 0.00 0.00 0.00 0.00 0.00 0.00 0.00 0.00 0.00 0.00 0.00 0.00 0.00 0.01 0.01 0.02 0.05 0.13 0.15 0.14 0.06 0.01 0.04 0.03 0.02 0.00 0.02 0.06 0.01 0.00 0.00 0.00 0.00 0.00 0.00 0.00
0.00 0.00 0.00 0.01 0.00 0.00 0.00 0.00 0.00 0.00 0.00 0.00 0.00 0.00 0.00 0.00 0.00 0.00 0.00 0.00 0.00 0.00 0.00 0.00 0.00 0.00 0.00 0.00 0.02 0.03 0.11 0.08 0.08 0.03 0.00 0.01 0.05 0.01 0.01 0.00 0.02 0.00 0.03 0.00 0.00 0.00 0.00 0.00 0.00
0.00 0.00 0.00 0.00 0.00 0.01 0.01 0.00 0.00 0.00 0.00 0.00 0.00 0.00 0.00 0.00 0.00 0.00 0.00 0.00 0.00 0.00 0.00 0.00 0.00 0.00 0.00 0.00 0.01 0.03 0.01 0.04 0.13 0.13 0.10 0.01 0.00 0.00 0.02 0.03 0.01 0.01 0.02 0.00 0.00 0.02 0.02 0.02 0.00
0.00 0.00 0.00 0.00 0.00 0.00 0.01 0.00 0.00 0.00 0.00 0.00 0.00 0.00 0.00 0.00 0.00 0.00 0.00 0.00 0.00 0.00 0.00 0.00 0.00 0.00 0.00 0.00 0.02 0.01 0.01 0.01 0.08 0.14 0.14 0.10 0.05 0.04 0.08 0.08 0.07 0.06 0.05 0.01 0.00 0.00 0.01 0.01 0.00
0.00 0.00 0.00 0.00 0.00 0.00 0.01 0.00 0.00 0.00 0.00 0.00 0.00 0.00 0.00 0.01 0.00 0.00 0.00 0.00 0.00 0.00 0.00 0.00 0.00 0.00 0.00 0.00 0.00 0.02 0.01 0.02 0.03 0.10 0.07 0.16 0.16 0.13 0.09 0.04 0.12 0.11 0.07 0.06 0.04 0.02 0.00 0.00 0.01
0.00 0.00 0.00 0.00 0.00 0.00 0.00 0.02 0.00 0.00 0.00 0.00 0.00 0.00 0.00 0.00 0.00 0.00 0.00 0.00 0.00 0.00 0.00 0.00 0.00 0.00 0.00 0.00 0.00 0.00 0.03 0.01 0.01 0.03 0.03 0.12 0.13 0.11 0.11 0.16 0.11 0.08 0.07 0.13 0.08 0.05 0.03 0.02 0.00
MSLP
1011.86 1011.19 1010.98 1010.56 1009.79 1008.26 1007.09 1007.34 1007.58 1008.02 1008.48 1008.93 1009.48 1009.39 1010.13 1010.85 1010.93 1012.24 1013.87 1014.79 1015.18 1015.57 1016.52 1017.22 1017.71 1017.84 1017.96 1018.05 1018.15 1018.21 1018.28 1018.34 1018.37 1018.42 1018.46 1018.55 1018.58 1018.68 1018.76 1018.86 1018.87 1018.97 1019.12 1019.12 1019.26 1019.33 1019.27 1019.27 1019.30
1010.75 1011.18 1010.98 1010.14 1008.86 1007.39 1007.33 1007.38 1007.64 1007.93 1008.59 1009.25 1009.75 1010.13 1010.38 1011.87 1012.67 1013.36 1014.22 1014.93 1015.18 1015.35 1016.07 1016.89 1017.95 1018.05 1018.17 1018.22 1018.29 1018.34 1018.45 1018.53 1018.62 1018.66 1018.78 1018.82 1018.88 1018.97 1018.89 1019.09 1019.13 1019.39 1019.37 1019.51 1019.48 1019.56 1019.57 1019.65 1019.74
1010.91 1010.85 1010.33 1009.39 1008.39 1007.83 1007.25 1007.34 1007.60 1008.33 1009.07 1009.24 1010.09 1010.44 1011.35 1012.94 1013.47 1013.49 1014.52 1015.03 1015.10 1015.69 1015.90 1017.55 1018.15 1018.29 1018.38 1018.42 1018.47 1018.56 1018.59 1018.69 1018.89 1018.95 1019.05 1019.02 1019.07 1019.11 1019.23 1019.35 1019.47 1019.57 1019.58 1019.68 1019.85 1019.93 1019.85 1020.02 1019.99
1010.30 1010.31 1010.10 1009.47 1008.78 1008.55 1007.31 1007.47 1007.79 1008.45 1009.19 1009.81 1010.43 1011.49 1013.02 1013.19 1013.76 1014.11 1014.97 1015.01 1015.22 1015.83 1016.05 1018.05 1018.31 1018.40 1018.55 1018.59 1018.60 1018.67 1018.69 1018.84 1018.95 1019.09 1019.22 1019.19 1019.30 1019.51 1019.50 1019.62 1019.61 1019.92 1019.86 1019.99 1020.10 1020.09 1020.17 1020.17 1020.33
1010.06 1009.78 1009.63 1009.86 1009.52 1009.03 1007.75 1007.78 1008.06 1008.49 1009.35 1009.89 1010.29 1011.69 1013.04 1014.05 1014.37 1014.75 1015.07 1015.03 1015.24 1015.77 1016.76 1017.65 1018.52 1018.69 1018.69 1018.82 1018.90 1018.93 1018.99 1019.01 1019.15 1019.28 1019.41 1019.40 1019.51 1019.65 1019.95 1019.97 1020.10 1020.03 1020.17 1020.16 1020.28 1020.41 1020.46 1020.55 1020.59
1010.19 1009.90 1009.94 1010.56 1010.40 1009.59 1008.53 1008.22 1008.31 1008.74 1009.42 1010.57 1011.10 1011.95 1013.49 1014.49 1014.55 1014.86 1015.13 1015.17 1015.53 1016.05 1016.37 1017.62 1018.77 1018.90 1019.05 1019.11 1019.18 1019.24 1019.30 1019.29 1019.50 1019.64 1019.71 1019.73 1020.01 1020.25 1020.33 1020.37 1020.38 1020.48 1020.48 1020.52 1020.56 1020.67 1020.73 1020.84 1020.93
1010.83 1010.95 1010.68 1010.95 1011.05 1010.06 1009.32 1008.86 1008.64 1009.06 1009.97 1010.53 1010.94 1011.72 1014.19 1014.16 1014.71 1015.10 1015.28 1015.80 1015.75 1016.04 1016.72 1017.38 1017.83 1019.02 1019.19 1019.28 1019.35 1019.47 1019.54 1019.63 1019.71 1019.86 1020.18 1020.32 1020.35 1020.55 1020.62 1020.60 1020.62 1020.73 1020.75 1020.80 1020.87 1020.92 1021.05 1021.13 1021.19
1010.67 1011.15 1010.68 1010.99 1011.19 1010.61 1009.94 1009.71 1009.67 1009.65 1009.95 1010.71 1010.93 1011.80 1013.32 1014.03 1014.78 1015.21 1015.70 1016.17 1016.25 1016.35 1016.98 1017.38 1018.29 1018.29 1018.79 1018.85 1019.60 1019.76 1019.91 1019.91 1019.96 1020.20 1020.37 1020.58 1020.71 1020.81 1020.93 1020.84 1020.89 1020.90 1020.97 1021.04 1021.13 1021.09 1021.18 1021.24 1021.34
1010.25 1010.66 1010.19 1010.67 1011.13 1011.01 1010.34 1010.30 1010.64 1010.70 1010.87 1010.77 1011.23 1011.47 1013.34 1014.42 1014.82 1015.32 1015.90 1016.29 1016.75 1017.05 1017.08 1017.14 1017.70 1018.47 1018.93 1019.02 1019.66 1019.91 1020.14 1020.19 1020.27 1020.46 1020.66 1020.59 1020.84 1020.67 1020.48 1021.09 1021.14 1021.17 1021.20 1021.24 1021.28 1021.33 1021.35 1021.26 1021.35
1009.36 1009.53 1009.83 1011.03 1011.65 1011.36 1010.79 1010.63 1010.62 1010.75 1010.81 1011.15 1011.52 1012.64 1013.84 1014.61 1014.87 1015.16 1015.53 1016.01 1016.53 1017.12 1017.13 1018.15 1017.83 1018.90 1018.46 1018.67 1019.71 1019.83 1019.47 1019.24 1019.71 1019.91 1020.17 1019.73 1020.25 1020.83 1020.59 1021.28 1021.53 1021.42 1021.44 1021.51 1021.55 1021.53 1021.41 1020.84 1019.77
1009.07 1009.51 1010.37 1011.81 1012.06 1011.72 1011.06 1010.99 1010.91 1010.77 1010.87 1011.32 1011.81 1012.86 1013.96 1014.61 1014.80 1014.99 1015.34 1015.89 1016.43 1017.12 1017.51 1017.91 1018.37 1018.61 1018.46 1019.09 1018.96 1019.03 1019.31 1019.77 1020.29 1020.35 1019.93 1020.26 1020.29 1020.35 1020.48 1020.91 1020.97 1021.07 1021.35 1020.57 1020.83 1020.69 1020.31 1020.67 1020.15
1008.73 1009.82 1010.42 1011.96 1012.65 1012.38 1011.77 1011.46 1011.57 1011.03 1010.90 1011.51 1012.26 1013.01 1013.72 1014.36 1014.53 1014.79 1015.21 1015.83 1016.59 1017.24 1017.75 1017.92 1018.31 1018.77 1018.89 1019.07 1018.85 1019.19 1019.35 1019.59 1019.76 1020.43 1020.63 1020.65 1020.37 1020.53 1020.64 1020.69 1021.00 1021.03 1020.82 1020.97 1020.85 1020.32 1020.78 1020.57 1020.61
1008.77 1010.11 1011.17 1012.34 1013.13 1013.00 1013.15 1012.67 1012.41 1011.88 1011.73 1011.87 1012.73 1013.34 1013.75 1014.08 1014.58 1014.90 1015.37 1016.08 1016.63 1017.15 1017.62 1018.08 1018.60 1019.19 1019.45 1019.23 1019.19 1019.32 1019.71 1019.26 1020.02 1020.31 1020.64 1020.38 1020.37 1020.79 1020.73 1021.10 1020.82 1020.93 1020.90 1020.79 1020.75 1020.66 1020.54 1020.59 1020.39
1009.05 1009.95 1010.99 1012.41 1012.92 1013.24 1013.28 1013.54 1012.83 1012.85 1012.43 1012.45 1012.97 1013.23 1013.55 1013.98 1014.50 1015.13 1015.55 1016.01 1016.57 1017.12 1017.70 1018.32 1018.74 1019.27 1019.38 1019.51 1019.73 1019.75 1019.65 1020.05 1019.88 1020.17 1020.85 1020.96 1020.66 1020.93 1020.98 1021.07 1020.86 1020.98 1020.92 1020.89 1020.82 1020.87 1020.39 1020.14 1020.16
1009.09 1009.55 1010.87 1011.98 1012.46 1012.95 1013.85 1013.97 1013.79 1013.26 1012.80 1012.76 1012.89 1013.23 1013.54 1014.00 1014.59 1015.18 1015.60 1015.98 1016.45 1017.04 1017.87 1018.45 1018.75 1019.09 1019.48 1019.80 1019.89 1019.51 1019.58 1019.74 1019.95 1020.34 1020.99 1021.12 1021.02 1021.35 1021.25 1021.01 1020.89 1020.93 1021.25 1021.18 1020.96 1020.73 1020.54 1020.06 1019.97
1008.38 1009.32 1010.41 1012.25 1012.69 1012.87 1013.26 1014.15 1014.41 1013.91 1013.06 1012.88 1012.88 1013.17 1013.64 1014.06 1014.53 1015.05 1015.63 1015.87 1016.42 1017.03 1017.93 1018.47 1018.35 1018.92 1019.38 1019.63 1020.15 1019.55 1019.74 1019.77 1020.01 1020.31 1020.75 1021.14 1021.40 1021.50 1021.36 1020.95 1020.93 1021.19 1021.11 1020.87 1020.59 1020.18 1020.19 1020.15 1019.97
1007.30 1008.33 1009.95 1011.97 1012.89 1013.28 1014.06 1014.32 1014.87 1014.47 1013.29 1012.69 1012.81 1013.09 1013.45 1014.05 1014.50 1015.07 1015.60 1015.99 1016.58 1017.31 1017.98 1018.39 1018.65 1018.98 1019.40 1019.87 1019.68 1019.82 1020.29 1019.86 1020.03 1020.29 1020.45 1021.15 1021.33 1021.53 1021.02 1020.93 1021.21 1021.45 1021.03 1020.73 1020.29 1020.45 1020.22 1020.23 1019.96
1005.81 1007.65 1009.46 1010.89 1012.61 1013.17 1013.94 1014.00 1014.62 1014.79 1013.64 1012.83 1012.62 1012.92 1013.19 1013.73 1014.30 1014.98 1015.43 1016.01 1016.68 1017.37 1018.01 1018.44 1018.73 1019.23 1019.53 1019.79 1020.01 1019.65 1019.84 1020.03 1020.19 1020.25 1020.45 1021.22 1021.29 1021.43 1021.30 1021.17 1021.32 1021.14 1020.79 1020.71 1020.57 1020.75 1020.61 1020.37 1020.32
1005.18 1005.97 1008.63 1010.54 1011.79 1012.71 1012.89 1013.75 1014.49 1014.88 1014.08 1012.76 1012.59 1012.58 1012.85 1013.29 1013.98 1014.77 1015.25 1015.91 1016.52 1017.25 1017.89 1018.45 1019.02 1019.51 1019.69 1019.84 1019.62 1019.65 1019.58 1019.97 1020.15 1020.32 1021.06 1021.29 1021.20 1021.45 1021.52 1020.99 1021.27 1021.09 1020.90 1021.13 1021.09 1020.73 1020.76 1020.16 1020.29
1005.36 1005.93 1008.17 1010.44 1011.57 1012.35 1013.30 1013.73 1014.69 1014.91 1014.38 1012.87 1012.49 1012.34 1012.50 1012.97 1013.56 1014.38 1015.05 1015.61 1016.17 1016.96 1017.72 1018.63 1019.00 1019.55 1019.77 1019.68 1019.54 1019.49 1019.65 1020.03 1020.21 1020.41 1021.09 1021.36 1021.24 1021.40 1021.47 1021.39 1021.24 1020.95 1021.11 1021.59 1021.39 1021.17 1020.30 1020.24 1020.52
1005.21 1005.39 1007.06 1008.73 1011.36 1012.39 1013.21 1013.79 1014.61 1015.32 1014.85 1013.47 1012.73 1012.40 1012.16 1012.67 1013.04 1013.95 1014.63 1015.12 1015.80 1016.59 1017.48 1018.15 1018.89 1019.49 1019.93 1019.59 1019.82 1020.16 1020.42 1020.70 1020.88 1020.95 1020.98 1020.97 1021.31 1021.25 1021.52 1021.54 1021.37 1021.53 1020.92 1021.02 1021.38 1021.13 1020.94 1020.13 1020.55
1005.47 1006.53 1006.97 1008.32 1009.53 1010.86 1012.39 1012.87 1013.84 1014.61 1014.35 1013.99 1013.06 1012.32 1011.73 1012.44 1012.91 1013.33 1014.09 1014.65 1015.25 1016.06 1017.13 1017.97 1018.63 1019.35 1019.77 1020.03 1019.69 1019.99 1020.28 1020.54 1020.19 1020.74 1020.58 1020.59 1021.13 1021.15 1021.27 1021.40 1021.43 1021.59 1020.93 1021.37 1021.32 1021.01 1021.11 1020.74 1020.31
1006.49 1007.28 1007.43 1007.79 1008.44 1009.16 1010.51 1011.35 1012.66 1013.38 1013.83 1013.28 1013.09 1012.25 1011.53 1011.76 1012.49 1012.58 1013.41 1014.19 1014.76 1015.64 1016.50 1017.52 1018.45 1019.27 1019.41 1019.97 1020.13 1020.33 1019.83 1019.89 1020.14 1020.52 1020.78 1021.00 1021.14 1021.10 1021.15 1021.40 1021.45 1021.41 1021.04 1021.50 1021.46 1021.53 1021.45 1021.02 1020.57
1007.63 1007.73 1007.79 1007.82 1008.01 1007.61 1008.29 1009.45 1010.73 1010.73 1010.61 1011.45 1012.16 1011.76 1011.35 1011.26 1011.69 1012.21 1012.82 1013.67 1014.43 1015.25 1016.11 1017.02 1018.13 1019.04 1019.45 1019.90 1020.21 1020.30 1020.07 1020.14 1020.35 1020.87 1020.78 1020.58 1020.66 1020.62 1021.09 1021.23 1021.54 1021.50 1021.40 1021.53 1021.41 1021.56 1021.69 1021.55 1021.36
1007.64 1007.03 1007.21 1007.67 1007.30 1006.49 1007.21 1007.91 1007.17 1008.27 1009.17 1009.10 1009.86 1011.02 1010.94 1010.98 1011.47 1011.99 1012.43 1013.66 1014.44 1014.83 1015.71 1016.63 1017.67 1018.53 1019.27 1019.60 1019.90 1020.27 1020.44 1020.58 1020.63 1020.71 1020.14 1020.37 1020.37 1020.37 1020.86 1021.13 1021.43 1021.41 1021.63 1021.61 1021.65 1021.80 1021.69 1021.57 1021.37
1006.63 1006.78 1005.63 1005.72 1005.51 1005.38 1007.39 1006.39 1006.53 1007.22 1008.01 1008.42 1008.73 1009.97 1010.83 1010.63 1011.06 1011.57 1012.39 1013.23 1014.29 1014.65 1015.50 1016.31 1017.21 1018.02 1018.76 1019.30 1019.64 1020.06 1020.43 1020.33 1020.78 1020.36 1019.76 1020.09 1020.57 1020.40 1020.44 1020.95 1021.10 1021.32 1021.47 1021.61 1021.80 1021.47 1021.42 1021.44 1021.52
1005.52 1005.60 1005.37 1004.71 1004.29 1004.51 1005.94 1006.29 1006.78 1007.60 1007.73 1008.14 1008.23 1009.09 1010.01 1011.13 1011.01 1011.50 1012.07 1012.92 1013.69 1014.44 1015.25 1016.08 1016.83 1017.61 1018.29 1018.81 1019.39 1019.86 1020.12 1020.30 1020.61 1020.45 1020.61 1020.15 1020.22 1019.92 1020.61 1020.74 1020.82 1020.99 1021.23 1021.35 1021.54 1021.25 1021.55 1021.73 1021.84
1004.63 1005.10 1004.71 1004.55 1003.23 1003.30 1004.53 1005.12 1005.11 1006.60 1007.15 1007.59 1007.84 1008.28 1009.15 1010.59 1011.31 1011.58 1012.11 1012.99 1013.51 1014.37 1015.09 1016.02 1016.42 1017.18 1017.76 1018.35 1018.97 1019.29 1019.59 1020.03 1020.28 1020.54 1020.61 1020.46 1020.07 1020.17 1020.54 1020.83 1020.81 1021.03 1021.07 1021.29 1021.43 1021.43 1021.44 1021.75 1021.61
1004.95 1004.49 1003.91 1003.57 1003.41 1002.62 1003.25 1004.11 1004.98 1006.19 1006.94 1007.13 1007.59 1008.01 1008.95 1010.14 1011.40 1012.21 1012.69 1013.41 1014.12 1014.86 1016.03 1016.29 1016.53 1017.05 1017.56 1017.87 1018.39 1018.83 1019.20 1019.57 1020.05 1020.40 1020.31 1020.27 1020.35 1020.59 1020.39 1020.64 1020.96 1021.07 1021.10 1021.21 1021.52 1021.39 1021.41 1021.62 1021.55
1003.57 1003.93 1003.74 1003.27 1003.17 1003.45 1003.43 1004.85 1006.19 1006.64 1007.20 1007.75 1008.02 1008.37 1008.83 1009.88 1011.16 1012.41 1013.37 1014.07 1015.00 1015.45 1016.14 1016.75 1016.98 1017.19 1017.60 1017.88 1018.20 1018.52 1018.93 1019.32 1019.52 1019.87 1019.98 1019.99 1020.31 1020.35 1020.41 1020.41 1020.81 1020.88 1020.89 1021.06 1021.53 1021.48 1020.95 1021.30 1021.32
Thickness
5792 5795 5795 5790 5767 5777 5776 5775 5789 5775 5776 5789 5789 5784 5773 5773 5767 5748 5773 5769 5765 5762 5753 5748 5743 5742 5741 5740 5739 5738 5737 5737 5737 5738 5737 5737 5738 5738 5738 5738 5738 5738 5737 5738 5737 5738 5739 5741 5741
5801 5797 5792 5784 5770 5767 5770 5788 5777 5784 5788 5794 5789 5782 5777 5755 5769 5766 5764 5769 5767 5765 5758 5751 5743 5742 5740 5739 5739 5738 5737 5736 5735 5735 5735 5735 5736 5737 5738 5736 5736 5735 5737 5736 5737 5738 5739 5739 5738
5800 5801 5783 5778 5778 5762 5770 5788 5788 5790 5793 5792 5779 5788 5777 5755 5767 5771 5772 5770 5769 5764 5761 5748 5743 5742 5741 5740 5739 5738 5738 5737 5735 5734 5735 5735 5735 5736 5736 5736 5735 5735 5737 5737 5736 5736 5737 5737 5738
5799 5794 5790 5771 5766 5773 5790 5793 5796 5788 5792 5793 5786 5764 5769 5779 5771 5775 5772 5771 5770 5764 5761 5746 5744 5743 5742 5741 5741 5740 5739 5737 5735 5734 5734 5734 5734 5733 5734 5734 5734 5733 5735 5735 5735 5736 5737 5738 5737
5801 5792 5771 5761 5767 5778 5800 5801 5799 5786 5784 5787 5791 5767 5761 5772 5778 5776 5773 5773 5770 5766 5757 5750 5744 5743 5743 5741 5740 5739 5738 5737 5735 5733 5732 5732 5732 5730 5730 5733 5732 5733 5734 5735 5735 5735 5736 5736 5738
5777 5788 5765 5742 5753 5775 5794 5802 5799 5793 5790 5782 5778 5771 5764 5774 5774 5775 5775 5774 5769 5765 5762 5752 5744 5742 5741 5741 5739 5737 5736 5734 5732 5729 5726 5728 5727 5727 5728 5730 5731 5732 5733 5734 5734 5734 5736 5736 5736
5762 5760 5755 5754 5746 5767 5782 5801 5793 5790 5781 5778 5790 5768 5761 5772 5776 5776 5775 5771 5769 5766 5760 5755 5752 5743 5741 5741 5739 5737 5734 5731 5728 5727 5724 5722 5723 5725 5726 5728 5730 5731 5733 5733 5734 5735 5735 5736 5736
5778 5765 5762 5760 5745 5756 5784 5789 5795 5791 5784 5796 5798 5766 5757 5773 5777 5777 5773 5769 5768 5767 5761 5757 5750 5748 5745 5744 5738 5735 5732 5730 5729 5726 5723 5721 5722 5724 5725 5729 5730 5732 5733 5733 5734 5736 5736 5737 5737
5790 5757 5762 5759 5749 5757 5786 5778 5787 5793 5783 5790 5792 5791 5779 5778 5777 5773 5766 5765 5763 5762 5762 5760 5755 5749 5745 5744 5739 5736 5732 5731 5730 5728 5724 5723 5723 5726 5730 5728 5730 5732 5734 5734 5735 5736 5737 5739 5739
5780 5768 5769 5766 5759 5762 5779 5779 5781 5780 5781 5780 5784 5787 5780 5777 5773 5770 5766 5763 5763 5759 5763 5754 5756 5748 5751 5749 5739 5737 5740 5740 5736 5735 5731 5733 5730 5728 5731 5729 5730 5732 5734 5734 5736 5737 5739 5744 5752
5782 5764 5772 5757 5758 5770 5779 5778 5787 5780 5773 5780 5773 5776 5777 5774 5773 5773 5771 5769 5766 5763 5762 5759 5754 5752 5753 5747 5747 5746 5743 5739 5733 5734 5738 5735 5735 5735 5735 5735 5736 5736 5736 5742 5742 5744 5747 5745 5750
5774 5777 5778 5762 5757 5764 5770 5782 5774 5784 5785 5791 5786 5779 5779 5773 5774 5775 5774 5771 5767 5763 5761 5761 5757 5753 5752 5749 5750 5747 5745 5743 5741 5737 5736 5736 5739 5739 5739 5740 5739 5739 5741 5742 5744 5748 5746 5749 5749
5776 5769 5767 5754 5752 5759 5758 5766 5766 5773 5786 5791 5786 5779 5776 5777 5776 5778 5778 5774 5770 5765 5764 5762 5757 5752 5750 5751 5750 5748 5745 5749 5743 5741 5739 5742 5743 5741 5742 5740 5743 5743 5744 5745 5747 5748 5750 5751 5753
5778 5774 5765 5751 5751 5754 5755 5755 5766 5769 5783 5781 5780 5779 5779 5776 5776 5775 5774 5773 5771 5769 5765 5762 5758 5753 5752 5751 5749 5748 5748 5746 5747 5745 5741 5741 5744 5743 5743 5743 5745 5745 5746 5748 5749 5751 5755 5758 5759
5775 5768 5764 5758 5763 5759 5752 5745 5746 5767 5778 5774 5777 5779 5780 5779 5779 5774 5776 5775 5775 5772 5767 5762 5760 5756 5753 5751 5751 5753 5752 5752 5750 5748 5744 5743 5745 5743 5745 5747 5749 5749 5747 5748 5752 5755 5758 5762 5765
5770 5770 5750 5749 5757 5762 5762 5737 5745 5761 5771 5770 5775 5778 5776 5777 5778 5778 5778 5780 5778 5775 5767 5765 5766 5760 5756 5755 5751 5756 5755 5755 5753 5751 5749 5747 5746 5745 5747 5751 5752 5750 5751 5754 5758 5762 5764 5766 5769
5774 5750 5749 5737 5749 5748 5742 5735 5739 5752 5768 5770 5774 5775 5777 5775 5778 5779 5780 5780 5778 5775 5770 5767 5766 5762 5758 5755 5757 5757 5754 5757 5756 5754 5753 5749 5749 5749 5753 5754 5753 5752 5756 5759 5763 5764 5767 5767 5772
5769 5756 5749 5741 5744 5745 5738 5736 5739 5742 5760 5768 5775 5775 5776 5775 5775 5780 5781 5781 5778 5776 5773 5769 5768 5763 5759 5757 5757 5761 5760 5759 5757 5757 5756 5751 5752 5752 5755 5756 5756 5758 5761 5763 5765 5765 5768 5770 5772
5787 5784 5745 5749 5754 5741 5748 5739 5739 5740 5752 5767 5771 5775 5777 5777 5782 5782 5783 5782 5779 5777 5773 5770 5766 5762 5760 5759 5761 5762 5762 5762 5761 5759 5755 5753 5755 5755 5756 5760 5759 5761 5764 5764 5765 5769 5768 5774 5776
5780 5774 5752 5746 5750 5740 5735 5739 5734 5736 5746 5769 5771 5775 5779 5780 5781 5781 5781 5782 5781 5776 5773 5768 5767 5763 5761 5763 5765 5766 5766 5764 5763 5761 5757 5755 5756 5757 5758 5760 5762 5765 5765 5762 5765 5767 5774 5776 5777
5775 5776 5762 5752 5736 5734 5730 5729 5729 5727 5736 5762 5771 5777 5784 5781 5782 5780 5781 5783 5783 5778 5773 5771 5768 5765 5762 5767 5765 5761 5761 5759 5758 5759 5760 5760 5758 5761 5760 5761 5762 5762 5767 5768 5767 5770 5771 5774 5776
5756 5770 5770 5756 5747 5723 5737 5715 5729 5725 5726 5745 5759 5773 5784 5781 5783 5785 5784 5784 5784 5782 5778 5774 5770 5766 5764 5764 5768 5763 5759 5756 5764 5761 5765 5764 5761 5763 5764 5763 5764 5763 5769 5767 5768 5771 5772 5775 5774
5747 5759 5759 5762 5754 5752 5742 5730 5726 5732 5724 5736 5748 5768 5784 5787 5784 5788 5788 5786 5788 5786 5782 5778 5772 5766 5767 5763 5763 5762 5766 5769 5769 5767 5765 5764 5763 5766 5766 5766 5766 5767 5770 5767 5768 5769 5770 5776 5778
5752 5748 5750 5755 5753 5741 5758 5746 5720 5743 5759 5758 5749 5769 5781 5788 5789 5791 5793 5791 5788 5788 5783 5780 5772 5766 5767 5764 5763 5763 5766 5766 5764 5762 5764 5769 5770 5771 5768 5767 5766 5767 5769 5770 5771 5770 5770 5772 5774
5737 5739 5717 5707 5724 5736 5766 5752 5770 5774 5776 5785 5776 5769 5780 5789 5787 5787 5791 5785 5784 5784 5782 5780 5774 5768 5767 5766 5765 5763 5763 5763 5763 5763 5769 5768 5771 5773 5771 5768 5768 5769 5769 5770 5770 5769 5771 5773 5775
5733 5733 5734 5707 5722 5751 5747 5750 5772 5787 5789 5793 5796 5786 5779 5787 5791 5790 5790 5789 5782 5785 5782 5779 5775 5771 5770 5768 5767 5765 5764 5766 5762 5768 5775 5772 5769 5773 5773 5770 5771 5770 5769 5769 5769 5772 5774 5774 5775
5738 5729 5763 5752 5770 5754 5744 5764 5777 5776 5782 5787 5791 5788 5782 5778 5787 5787 5791 5789 5789 5785 5781 5778 5776 5773 5772 5771 5768 5766 5765 5765 5763 5767 5767 5773 5773 5777 5772 5771 5774 5773 5771 5771 5770 5775 5773 5773 5773
5749 5757 5737 5745 5737 5740 5750 5757 5769 5771 5775 5786 5789 5790 5790 5782 5781 5786 5789 5787 5788 5786 5783 5778 5778 5773 5772 5771 5769 5769 5769 5766 5766 5764 5764 5767 5773 5773 5772 5771 5773 5772 5772 5771 5771 5773 5773 5772 5776
5729 5735 5749 5761 5762 5755 5752 5759 5794 5782 5784 5788 5791 5795 5792 5786 5778 5777 5782 5781 5780 5780 5771 5771 5775 5773 5771 5771 5769 5769 5769 5767 5766 5763 5765 5766 5767 5767 5771 5770 5769 5770 5771 5770 5769 5772 5773 5773 5774
5752 5742 5749 5735 5735 5753 5763 5751 5775 5782 5786 5788 5789 5791 5795 5789 5783 5775 5770 5771 5767 5768 5768 5764 5767 5769 5768 5769 5768 5769 5768 5767 5765 5764 5765 5765 5765 5766 5767 5768 5767 5769 5771 5770 5768 5770 5776 5774 5773